Location: Easter Hill Village
(37.9235°N, 122.3444°W)
Time: 19:20:58
(UTC+00:00)

Starlink (trailer) - Pass Details

Date: 16 September 2019
Orbit: 548 x 551 km, 53.0° (Epoch: 23 October)

Event Time Altitude Azimuth Distance (km) Brightness Sun altitude
Exits shadow 12:25:47 34° 283° (WNW) 915 4.3 -17.5°
Maximum altitude 12:26:55 43° 324° (NW) 783 4.2 -17.3°
Drops below altitude 10° 12:30:53 10° 37° (NE) 1,827 7.1 -16.5°
Sets 12:33:13 0° 44° (NE) 2,724 8.3 -16.1°
